| time (UTC) | temp F | wind direction | speed knots | gust knots | rain 1hr in | rain 24hr in | rain mn in | humidity % | barometer mb |
| 20260503010225 | 45 | 278 | 0.0 | 0.0 | 0.00 | 0.00 | 0.00 | 54 | 4271.4 |
| 20260503005723 | 45 | 274 | 0.0 | 0.0 | 0.00 | 0.00 | 0.00 | 56 | 4271.6 |
| 20260503005220 | 45 | 286 | 0.0 | 0.0 | 0.00 | 0.00 | 0.00 | 56 | 4271.6 |
| 20260503004716 | 45 | 287 | 0.0 | 0.0 | 0.00 | 0.00 | 0.00 | 54 | 4271.5 |
| 20260503004215 | 45 | 287 | 0.0 | 0.0 | 0.00 | 0.00 | 0.00 | 55 | 4271.3 |
| 20260503003711 | 46 | 287 | 0.0 | 0.0 | 0.00 | 0.00 | 0.00 | 55 | 4271.6 |
| 20260503003208 | 46 | 287 | 0.0 | 0.0 | 0.00 | 0.00 | 0.00 | 56 | 4271.7 |
| 20260503002705 | 46 | 284 | 0.0 | 0.0 | 0.00 | 0.00 | 0.00 | 59 | 4271.6 |
| 20260503002202 | 46 | 267 | 0.0 | 0.0 | 0.00 | 0.00 | 0.00 | 57 | 4271.5 |
| 20260503001657 | 47 | 259 | 0.0 | 0.0 | 0.00 | 0.00 | 0.00 | 51 | 4271.7 |
| 20260503001154 | 47 | 283 | 0.0 | 0.0 | 0.00 | 0.00 | 0.00 | 52 | 4271.5 |
| 20260503000652 | 47 | 257 | 0.0 | 0.0 | 0.00 | 0.00 | 0.00 | 51 | 4271.3 |
| 20260503000149 | 47 | 251 | 0.0 | 0.0 | 0.00 | 0.00 | 0.00 | 50 | 4271.5 |
| 20260502235646 | 47 | 278 | 1.7 | 2.6 | 0.00 | 0.00 | 0.00 | 52 | 4271.5 |
| 20260502235144 | 47 | 279 | 0.0 | 0.0 | 0.00 | 0.00 | 0.00 | 52 | 4271.4 |
| 20260502234640 | 47 | 309 | 0.0 | 0.0 | 0.00 | 0.00 | 0.00 | 49 | 4271.4 |
| 20260502234137 | 47 | 273 | 0.0 | 0.0 | 0.00 | 0.00 | 0.00 | 48 | 4271.6 |
| 20260502233633 | 47 | 291 | 0.0 | 0.9 | 0.00 | 0.00 | 0.00 | 47 | 4271.4 |
| 20260502233130 | 47 | 307 | 0.9 | 1.7 | 0.00 | 0.00 | 0.00 | 45 | 4271.5 |
| 20260502232626 | 48 | 282 | 2.6 | 2.6 | 0.00 | 0.00 | 0.00 | 45 | 4271.4 |
| 20260502232124 | 48 | 301 | 1.7 | 2.6 | 0.00 | 0.00 | 0.00 | 45 | 4271.5 |
| 20260502231620 | 48 | 295 | 0.0 | 0.0 | 0.00 | 0.00 | 0.00 | 49 | 4271.4 |
| 20260502231118 | 48 | 269 | 0.0 | 0.0 | 0.00 | 0.00 | 0.00 | 43 | 4271.5 |
| 20260502230616 | 47 | 261 | 5.2 | 6.1 | 0.00 | 0.00 | 0.00 | 46 | 4271.5 |
| 20260502230114 | 47 | 284 | 4.3 | 5.2 | 0.00 | 0.00 | 0.00 | 44 | 4271.7 |
| 20260502225609 | 48 | 306 | 0.0 | 0.0 | 0.00 | 0.00 | 0.00 | 46 | 4271.4 |
| 20260502225107 | 48 | 325 | 4.3 | 5.2 | 0.00 | 0.00 | 0.00 | 46 | 4271.5 |
| 20260502224603 | 48 | 301 | 6.1 | 7.0 | 0.00 | 0.00 | 0.00 | 45 | 4271.6 |
| 20260502224100 | 48 | 256 | 0.0 | 0.0 | 0.00 | 0.00 | 0.00 | 46 | 4271.6 |
| 20260502223557 | 47 | 324 | 3.5 | 6.1 | 0.00 | 0.00 | 0.00 | 47 | 4271.6 |
| 20260502223056 | 48 | 336 | 10.4 | 11.3 | 0.00 | 0.00 | 0.00 | 43 | 4271.5 |
| 20260502222553 | 48 | 303 | 4.3 | 6.1 | 0.00 | 0.00 | 0.00 | 45 | 4271.7 |
| 20260502222049 | 48 | 312 | 7.0 | 7.8 | 0.00 | 0.00 | 0.00 | 48 | 4271.6 |
| 20260502221545 | 48 | 289 | 5.2 | 6.1 | 0.00 | 0.00 | 0.00 | 44 | 4271.6 |
| 20260502221042 | 48 | 284 | 6.1 | 6.1 | 0.00 | 0.00 | 0.00 | 47 | 4271.7 |
| 20260502220538 | 48 | 332 | 7.0 | 7.8 | 0.00 | 0.00 | 0.00 | 48 | 4271.6 |
| 20260502220035 | 48 | 323 | 2.6 | 4.3 | 0.00 | 0.00 | 0.00 | 45 | 4271.6 |
| 20260502215532 | 48 | 331 | 5.2 | 7.0 | 0.00 | 0.00 | 0.00 | 46 | 4271.7 |
| 20260502215029 | 48 | 347 | 7.0 | 7.8 | 0.00 | 0.00 | 0.00 | 47 | 4271.8 |
| 20260502214526 | 48 | 300 | 5.2 | 7.0 | 0.00 | 0.00 | 0.00 | 46 | 4271.5 |
| 20260502214023 | 48 | 326 | 4.3 | 6.1 | 0.00 | 0.00 | 0.00 | 46 | 4271.6 |
| 20260502213520 | 48 | 337 | 5.2 | 6.1 | 0.00 | 0.00 | 0.00 | 46 | 4271.7 |
| 20260502213018 | 48 | 333 | 7.0 | 7.8 | 0.00 | 0.00 | 0.00 | 47 | 4271.5 |
| 20260502212517 | 48 | 282 | 7.0 | 8.7 | 0.00 | 0.00 | 0.00 | 46 | 4271.8 |
| 20260502212014 | 48 | 316 | 5.2 | 7.0 | 0.00 | 0.00 | 0.00 | 46 | 4271.5 |
| 20260502211509 | 48 | 305 | 2.6 | 4.3 | 0.00 | 0.00 | 0.00 | 45 | 4271.6 |
| 20260502211007 | 48 | 319 | 4.3 | 5.2 | 0.00 | 0.00 | 0.00 | 49 | 4271.6 |
| 20260502210503 | 48 | 330 | 6.1 | 7.0 | 0.00 | 0.00 | 0.00 | 50 | 4271.6 |
| 20260502210001 | 47 | 329 | 4.3 | 5.2 | 0.00 | 0.00 | 0.00 | 42 | 4271.4 |
| 20260502205456 | 47 | 335 | 6.1 | 6.1 | 0.00 | 0.00 | 0.00 | 47 | 4271.3 |
| 20260502204954 | 47 | 337 | 6.1 | 8.7 | 0.00 | 0.00 | 0.00 | 46 | 4271.5 |
| 20260502204451 | 48 | 337 | 10.4 | 13.0 | 0.00 | 0.00 | 0.00 | 47 | 4271.7 |
| 20260502203949 | 48 | 328 | 9.6 | 11.3 | 0.00 | 0.00 | 0.00 | 45 | 4271.6 |
| 20260502203446 | 48 | 329 | 8.7 | 11.3 | 0.00 | 0.00 | 0.00 | 46 | 4271.5 |
| 20260502202942 | 47 | 301 | 3.5 | 5.2 | 0.00 | 0.00 | 0.00 | 45 | 4271.5 |
| 20260502202439 | 48 | 305 | 2.6 | 2.6 | 0.00 | 0.00 | 0.00 | 47 | 4271.6 |
| 20260502201937 | 48 | 304 | 5.2 | 6.1 | 0.00 | 0.00 | 0.00 | 48 | 4271.6 |
| 20260502201432 | 47 | 324 | 6.1 | 7.0 | 0.00 | 0.00 | 0.00 | 46 | 4271.7 |
| 20260502200929 | 47 | 336 | 7.0 | 9.6 | 0.00 | 0.00 | 0.00 | 52 | 4271.8 |
| 20260502200425 | 47 | 299 | 4.3 | 5.2 | 0.00 | 0.00 | 0.00 | 48 | 4271.9 |
| 20260502195923 | 47 | 331 | 7.8 | 9.6 | 0.00 | 0.00 | 0.00 | 49 | 4271.8 |
| 20260502195420 | 47 | 297 | 2.6 | 4.3 | 0.00 | 0.00 | 0.00 | 45 | 4271.9 |
| 20260502194916 | 47 | 334 | 4.3 | 6.1 | 0.00 | 0.00 | 0.00 | 45 | 4272.0 |
| 20260502194414 | 48 | 324 | 7.8 | 7.8 | 0.00 | 0.00 | 0.00 | 45 | 4272.2 |
| 20260502193909 | 47 | 279 | 4.3 | 6.1 | 0.00 | 0.00 | 0.00 | 46 | 4272.0 |
| 20260502193407 | 47 | 324 | 4.3 | 6.1 | 0.00 | 0.00 | 0.00 | 50 | 4272.1 |
| 20260502192901 | 47 | 288 | 4.3 | 6.1 | 0.00 | 0.00 | 0.00 | 49 | 4272.2 |
| 20260502192359 | 47 | 302 | 5.2 | 6.1 | 0.00 | 0.00 | 0.00 | 50 | 4272.0 |
| 20260502191856 | 46 | 308 | 1.7 | 1.7 | 0.00 | 0.00 | 0.00 | 47 | 4272.2 |
| 20260502191354 | 47 | 322 | 6.1 | 7.0 | 0.00 | 0.00 | 0.00 | 48 | 4272.2 |
| 20260502190851 | 47 | 315 | 6.1 | 8.7 | 0.00 | 0.00 | 0.00 | 52 | 4272.1 |
| 20260502190348 | 47 | 296 | 2.6 | 4.3 | 0.00 | 0.00 | 0.00 | 48 | 4272.2 |
| 20260502185844 | 47 | 323 | 7.0 | 7.8 | 0.00 | 0.00 | 0.00 | 49 | 4272.4 |
| 20260502185340 | 47 | 314 | 3.5 | 4.3 | 0.00 | 0.00 | 0.00 | 49 | 4272.5 |
| 20260502184837 | 48 | 324 | 7.0 | 7.8 | 0.00 | 0.00 | 0.00 | 45 | 4272.3 |
| 20260502184332 | 46 | 335 | 10.4 | 11.3 | 0.00 | 0.00 | 0.00 | 47 | 4272.5 |
| 20260502183829 | 46 | 329 | 7.0 | 7.0 | 0.00 | 0.00 | 0.00 | 47 | 4272.4 |
| 20260502183325 | 46 | 264 | 4.3 | 5.2 | 0.00 | 0.00 | 0.00 | 51 | 4272.4 |
| 20260502182820 | 46 | 296 | 5.2 | 6.1 | 0.00 | 0.00 | 0.00 | 53 | 4272.6 |
| 20260502182316 | 47 | 276 | 3.5 | 4.3 | 0.00 | 0.00 | 0.00 | 46 | 4272.4 |
| 20260502181813 | 47 | 272 | 1.7 | 4.3 | 0.00 | 0.00 | 0.00 | 48 | 4272.4 |
| 20260502181312 | 47 | 274 | 6.1 | 7.8 | 0.00 | 0.00 | 0.00 | 46 | 4272.6 |
| 20260502180809 | 47 | 299 | 5.2 | 6.1 | 0.00 | 0.00 | 0.00 | 47 | 4272.7 |
| 20260502180306 | 47 | 281 | 7.0 | 7.8 | 0.00 | 0.00 | 0.00 | 47 | 4272.8 |
| 20260502170226 | 46 | 305 | 2.6 | 4.3 | 0.00 | 0.00 | 0.00 | 48 | 4273.0 |
| 20260502164213 | 45 | 307 | 3.5 | 4.3 | 0.00 | 0.00 | 0.00 | 57 | 4273.2 |
| 20260502163708 | 45 | 339 | 7.8 | 9.6 | 0.00 | 0.00 | 0.00 | 54 | 4273.1 |
| 20260502163205 | 45 | 341 | 7.0 | 7.0 | 0.00 | 0.00 | 0.00 | 55 | 4273.2 |
| 20260502162702 | 44 | 334 | 5.2 | 6.1 | 0.00 | 0.00 | 0.00 | 50 | 4273.4 |
| 20260502162159 | 45 | 332 | 6.1 | 7.0 | 0.00 | 0.00 | 0.00 | 52 | 4273.3 |
| 20260502161656 | 44 | 327 | 7.8 | 8.7 | 0.00 | 0.00 | 0.00 | 54 | 4273.5 |
| 20260502161152 | 44 | 323 | 6.1 | 7.8 | 0.00 | 0.00 | 0.00 | 55 | 4273.4 |
| 20260502160651 | 44 | 323 | 6.1 | 7.0 | 0.00 | 0.00 | 0.00 | 56 | 4273.4 |
| 20260502160150 | 44 | 305 | 4.3 | 4.3 | 0.00 | 0.00 | 0.00 | 56 | 4273.5 |
| 20260502152109 | 44 | 327 | 7.8 | 8.7 | 0.00 | 0.00 | 0.00 | 55 | 4273.2 |
| 20260502151606 | 44 | 338 | 9.6 | 11.3 | 0.00 | 0.00 | 0.00 | 58 | 4273.1 |
| 20260502151104 | 44 | 326 | 7.0 | 7.8 | 0.00 | 0.00 | 0.00 | 56 | 4273.1 |
| 20260502150601 | 45 | 328 | 5.2 | 7.0 | 0.00 | 0.00 | 0.00 | 61 | 4273.0 |
| 20260502130446 | 41 | 329 | 12.2 | 14.8 | 0.00 | 0.00 | 0.00 | 76 | 4272.6 |
| 20260502123428 | 40 | 329 | 7.8 | 8.7 | 0.00 | 0.00 | 0.00 | 78 | 4272.4 |
| 20260502122926 | 39 | 332 | 6.1 | 7.0 | 0.00 | 0.00 | 0.00 | 79 | 4272.7 |
| 20260502122422 | 39 | 320 | 6.1 | 7.8 | 0.00 | 0.00 | 0.00 | 79 | 4272.6 |
| 20260502121920 | 39 | 311 | 5.2 | 6.1 | 0.00 | 0.00 | 0.00 | 79 | 4272.6 |
| 20260502121417 | 39 | 294 | 4.3 | 5.2 | 0.00 | 0.00 | 0.00 | 79 | 4272.6 |
| 20260502120914 | 38 | 313 | 4.3 | 6.1 | 0.00 | 0.00 | 0.00 | 80 | 4272.6 |
| 20260502120410 | 38 | 327 | 2.6 | 5.2 | 0.00 | 0.00 | 0.00 | 81 | 4272.4 |
| 20260502115908 | 37 | 329 | 4.3 | 5.2 | 0.00 | 0.00 | 0.00 | 82 | 4272.6 |
| 20260502115405 | 36 | 299 | 4.3 | 7.0 | 0.00 | 0.00 | 0.00 | 82 | 4272.4 |
| 20260502114901 | 37 | 314 | 4.3 | 5.2 | 0.00 | 0.00 | 0.00 | 82 | 4272.3 |
| 20260502114358 | 36 | 315 | 4.3 | 5.2 | 0.00 | 0.00 | 0.00 | 82 | 4272.4 |
| 20260502113855 | 36 | 302 | 2.6 | 2.6 | 0.00 | 0.00 | 0.00 | 82 | 4272.3 |
| 20260502113352 | 36 | 302 | 0.0 | 0.0 | 0.00 | 0.00 | 0.00 | 82 | 4272.3 |
| 20260502112851 | 36 | 299 | 0.0 | 0.0 | 0.00 | 0.00 | 0.00 | 82 | 4272.3 |
| 20260502112348 | 36 | 302 | 0.0 | 0.0 | 0.00 | 0.00 | 0.00 | 82 | 4272.4 |
| 20260502111845 | 36 | 303 | 0.0 | 0.0 | 0.00 | 0.00 | 0.00 | 82 | 4272.2 |
| 20260502111342 | 36 | 304 | 0.0 | 0.0 | 0.00 | 0.00 | 0.00 | 82 | 4272.2 |
| 20260502110840 | 36 | 312 | 0.0 | 0.0 | 0.00 | 0.00 | 0.00 | 82 | 4272.2 |
| 20260502110338 | 36 | 308 | 0.9 | 0.9 | 0.00 | 0.00 | 0.00 | 82 | 4272.2 |
| 20260502105835 | 36 | 323 | 2.6 | 2.6 | 0.00 | 0.00 | 0.00 | 82 | 4272.2 |
| 20260502105332 | 37 | 322 | 2.6 | 2.6 | 0.00 | 0.00 | 0.00 | 81 | 4272.2 |
| 20260502104830 | 36 | 298 | 4.3 | 5.2 | 0.00 | 0.00 | 0.00 | 81 | 4272.2 |
| 20260502104327 | 36 | 272 | 3.5 | 4.3 | 0.00 | 0.00 | 0.00 | 81 | 4272.0 |
| 20260502103824 | 38 | 265 | 5.2 | 6.1 | 0.00 | 0.00 | 0.00 | 82 | 4272.1 |
| 20260502103321 | 38 | 320 | 0.0 | 0.0 | 0.00 | 0.00 | 0.00 | 81 | 4272.1 |
| 20260502102818 | 38 | 316 | 0.0 | 0.0 | 0.00 | 0.00 | 0.00 | 81 | 4271.9 |
| 20260502102314 | 38 | 315 | 0.0 | 0.0 | 0.00 | 0.00 | 0.00 | 81 | 4271.8 |
| 20260502101813 | 38 | 315 | 0.0 | 0.0 | 0.00 | 0.00 | 0.00 | 81 | 4271.8 |
| 20260502101310 | 38 | 316 | 0.0 | 0.0 | 0.00 | 0.00 | 0.00 | 80 | 4271.8 |
| 20260502100808 | 38 | 327 | 2.6 | 2.6 | 0.00 | 0.00 | 0.00 | 80 | 4271.9 |
| 20260502100308 | 38 | 322 | 5.2 | 6.1 | 0.00 | 0.00 | 0.00 | 80 | 4271.8 |
| 20260502091241 | 37 | 314 | 2.6 | 2.6 | 0.00 | 0.00 | 0.00 | 77 | 4271.7 |
| 20260502090738 | 37 | 303 | 4.3 | 5.2 | 0.00 | 0.00 | 0.00 | 77 | 4271.7 |
| 20260502090235 | 37 | 278 | 4.3 | 5.2 | 0.00 | 0.00 | 0.00 | 77 | 4271.7 |
| 20260502071136 | 38 | 305 | 6.1 | 7.8 | 0.00 | 0.00 | 0.00 | 74 | 4271.3 |
| 20260502070634 | 38 | 281 | 7.8 | 8.7 | 0.00 | 0.00 | 0.00 | 73 | 4271.2 |
| 20260502070131 | 38 | 305 | 7.0 | 8.7 | 0.00 | 0.00 | 0.00 | 75 | 4271.2 |
| 20260502065630 | 38 | 297 | 6.1 | 7.0 | 0.00 | 0.00 | 0.00 | 76 | 4271.1 |
| 20260502065127 | 38 | 315 | 5.2 | 6.1 | 0.00 | 0.00 | 0.00 | 76 | 4271.4 |
| 20260502064626 | 38 | 314 | 4.3 | 5.2 | 0.00 | 0.00 | 0.00 | 75 | 4271.3 |
| 20260502064122 | 39 | 307 | 4.3 | 5.2 | 0.00 | 0.00 | 0.00 | 75 | 4271.6 |
| 20260502063620 | 39 | 316 | 7.0 | 7.8 | 0.00 | 0.00 | 0.00 | 73 | 4271.3 |
| 20260502063117 | 39 | 330 | 5.2 | 7.0 | 0.00 | 0.00 | 0.00 | 75 | 4271.6 |
| 20260502062614 | 39 | 323 | 5.2 | 6.1 | 0.00 | 0.00 | 0.00 | 76 | 4271.4 |
| 20260502062112 | 39 | 307 | 5.2 | 7.8 | 0.00 | 0.00 | 0.00 | 76 | 4271.6 |
| 20260502061610 | 39 | 315 | 6.1 | 7.8 | 0.00 | 0.00 | 0.00 | 76 | 4271.5 |
| 20260502061108 | 40 | 295 | 4.3 | 5.2 | 0.00 | 0.00 | 0.00 | 78 | 4271.4 |
| 20260502060607 | 39 | 280 | 6.1 | 8.7 | 0.00 | 0.00 | 0.00 | 80 | 4271.4 |
| 20260502060104 | 39 | 295 | 4.3 | 5.2 | 0.00 | 0.00 | 0.00 | 81 | 4271.6 |
| 20260502055602 | 40 | 277 | 4.3 | 6.1 | 0.00 | 0.00 | 0.00 | 81 | 4271.7 |
| 20260502055100 | 40 | 275 | 3.5 | 6.1 | 0.00 | 0.00 | 0.00 | 80 | 4271.7 |
| 20260502054559 | 40 | 271 | 0.0 | 0.0 | 0.00 | 0.00 | 0.00 | 80 | 4271.7 |
| 20260502054055 | 40 | 275 | 0.0 | 0.0 | 0.00 | 0.00 | 0.00 | 79 | 4271.7 |
| 20260502053552 | 40 | 293 | 7.0 | 7.0 | 0.00 | 0.00 | 0.00 | 80 | 4271.4 |
| 20260502053050 | 40 | 289 | 4.3 | 5.2 | 0.00 | 0.00 | 0.00 | 81 | 4271.6 |
| 20260502052549 | 40 | 275 | 4.3 | 5.2 | 0.00 | 0.00 | 0.00 | 81 | 4271.5 |
| 20260502052046 | 40 | 284 | 3.5 | 5.2 | 0.00 | 0.00 | 0.00 | 82 | 4271.7 |
| 20260502051544 | 40 | 284 | 0.0 | 0.0 | 0.00 | 0.00 | 0.00 | 81 | 4271.6 |
| 20260502051042 | 41 | 295 | 2.6 | 2.6 | 0.00 | 0.00 | 0.00 | 81 | 4271.6 |
| 20260502050537 | 41 | 275 | 4.3 | 5.2 | 0.00 | 0.00 | 0.00 | 81 | 4271.9 |
| 20260502050035 | 41 | 289 | 2.6 | 4.3 | 0.00 | 0.00 | 0.00 | 80 | 4271.6 |
| 20260502045531 | 41 | 278 | 2.6 | 4.3 | 0.00 | 0.00 | 0.00 | 80 | 4271.8 |
| 20260502045029 | 41 | 269 | 4.3 | 6.1 | 0.00 | 0.00 | 0.00 | 80 | 4271.7 |
| 20260502044525 | 41 | 249 | 5.2 | 6.1 | 0.00 | 0.00 | 0.00 | 81 | 4271.8 |
| 20260502044021 | 41 | 246 | 3.5 | 4.3 | 0.00 | 0.00 | 0.00 | 82 | 4271.8 |
| 20260502043519 | 41 | 257 | 0.0 | 0.0 | 0.00 | 0.00 | 0.00 | 82 | 4271.8 |
| 20260502043015 | 41 | 295 | 0.0 | 0.9 | 0.00 | 0.00 | 0.00 | 82 | 4271.8 |
| 20260502042510 | 41 | 295 | 0.0 | 0.0 | 0.00 | 0.00 | 0.00 | 82 | 4271.7 |
| 20260502042008 | 41 | 291 | 0.0 | 0.0 | 0.00 | 0.00 | 0.00 | 82 | 4271.7 |
| 20260502041506 | 41 | 290 | 0.0 | 0.0 | 0.00 | 0.00 | 0.00 | 82 | 4271.8 |
| 20260502041003 | 41 | 290 | 0.0 | 0.0 | 0.00 | 0.00 | 0.00 | 82 | 4271.6 |
| 20260502040459 | 42 | 291 | 0.0 | 0.0 | 0.00 | 0.00 | 0.00 | 81 | 4271.9 |
| 20260502035955 | 42 | 295 | 0.0 | 0.0 | 0.00 | 0.39 | 0.39 | 80 | 4271.7 |
| 20260502035451 | 42 | 295 | 0.0 | 0.0 | 0.00 | 0.39 | 0.39 | 79 | 4271.6 |
| 20260502034950 | 42 | 295 | 0.0 | 0.0 | 0.00 | 0.39 | 0.39 | 78 | 4271.5 |
| 20260502034448 | 42 | 295 | 0.0 | 0.0 | 0.00 | 0.39 | 0.39 | 78 | 4271.5 |
| 20260502033946 | 42 | 293 | 1.7 | 2.6 | 0.00 | 0.39 | 0.39 | 78 | 4271.5 |
| 20260502033443 | 43 | 300 | 1.7 | 1.7 | 0.00 | 0.39 | 0.39 | 78 | 4271.7 |
| 20260502032939 | 43 | 300 | 1.7 | 1.7 | 0.00 | 0.39 | 0.39 | 78 | 4271.5 |
| 20260502032436 | 43 | 312 | 1.7 | 2.6 | 0.00 | 0.39 | 0.39 | 78 | 4271.4 |
| 20260502031933 | 43 | 319 | 1.7 | 1.7 | 0.00 | 0.39 | 0.39 | 77 | 4271.3 |
| 20260502031432 | 44 | 306 | 3.5 | 4.3 | 0.00 | 0.39 | 0.39 | 77 | 4271.5 |
| 20260502030930 | 44 | 296 | 2.6 | 4.3 | 0.00 | 0.39 | 0.39 | 77 | 4271.4 |
| 20260502030428 | 43 | 287 | 2.6 | 2.6 | 0.00 | 0.39 | 0.39 | 78 | 4271.3 |
| 20260502025925 | 44 | 297 | 0.0 | 0.0 | 0.00 | 0.39 | 0.39 | 80 | 4271.2 |
| 20260502025422 | 44 | 311 | 0.0 | 0.0 | 0.00 | 0.39 | 0.39 | 79 | 4271.3 |
| 20260502024920 | 44 | 323 | 3.5 | 4.3 | 0.00 | 0.39 | 0.39 | 77 | 4271.3 |
| 20260502024418 | 44 | 324 | 3.5 | 5.2 | 0.00 | 0.39 | 0.39 | 77 | 4271.3 |
| 20260502023915 | 44 | 321 | 3.5 | 4.3 | 0.00 | 0.39 | 0.39 | 76 | 4271.1 |
| 20260502023413 | 44 | 323 | 4.3 | 5.2 | 0.00 | 0.39 | 0.39 | 76 | 4271.1 |
| 20260502022910 | 44 | 307 | 0.9 | 2.6 | 0.00 | 0.39 | 0.39 | 77 | 4270.9 |
| 20260502022406 | 44 | 301 | 0.0 | 0.0 | 0.00 | 0.39 | 0.39 | 77 | 4271.3 |
| 20260502021903 | 44 | 299 | 0.0 | 0.0 | 0.00 | 0.39 | 0.39 | 77 | 4271.1 |
| 20260502021401 | 44 | 291 | 0.0 | 0.0 | 0.00 | 0.39 | 0.39 | 78 | 4270.9 |
| 20260502020858 | 44 | 279 | 0.0 | 0.0 | 0.00 | 0.39 | 0.39 | 78 | 4271.0 |
| 20260502020356 | 43 | 307 | 0.0 | 0.0 | 0.00 | 0.39 | 0.39 | 79 | 4270.9 |
| 20260502015852 | 44 | 318 | 0.0 | 0.0 | 0.00 | 0.39 | 0.39 | 79 | 4270.8 |
| 20260502015349 | 44 | 324 | 0.9 | 1.7 | 0.00 | 0.39 | 0.39 | 78 | 4270.7 |
| 20260502014847 | 44 | 322 | 1.7 | 1.7 | 0.00 | 0.39 | 0.39 | 77 | 4270.8 |
| 20260502014344 | 44 | 325 | 2.6 | 2.6 | 0.00 | 0.39 | 0.39 | 75 | 4270.6 |
| 20260502013839 | 44 | 322 | 3.5 | 5.2 | 0.00 | 0.39 | 0.39 | 74 | 4270.4 |
| 20260502013335 | 44 | 317 | 2.6 | 2.6 | 0.00 | 0.39 | 0.39 | 76 | 4270.7 |
| 20260502012832 | 44 | 313 | 1.7 | 2.6 | 0.00 | 0.39 | 0.39 | 77 | 4270.3 |
| 20260502012330 | 44 | 301 | 0.0 | 0.0 | 0.00 | 0.39 | 0.39 | 78 | 4270.2 |
| 20260502011827 | 44 | 288 | 0.0 | 0.0 | 0.00 | 0.39 | 0.39 | 79 | 4270.3 |
| 20260502011323 | 44 | 298 | 0.0 | 0.0 | 0.00 | 0.39 | 0.39 | 79 | 4270.3 |
| 20260502010821 | 44 | 293 | 0.0 | 0.0 | 0.00 | 0.39 | 0.39 | 78 | 4270.0 |
| 20260502010317 | 44 | 293 | 0.0 | 0.0 | 0.00 | 0.39 | 0.39 | 77 | 4270.1 |